Showing default

IRIDIUM 180, 43922

Orbit data source: Space-Track

IRIDIUM 180, 43922 is a payload satellite owned by Iridium (US) in LEO that was launched on Fri, 11 Jan 2019 UTC via an FALCON 9 launch vehicle from the Air Force Western Test Range (AFWTR). Payload-class satellites include a variety of spacecraft equipped with specific instruments for various scientific and technological missions. These include communications satellites like Starlink; space stations such as the ISS; scientific satellites like the Hubble; Earth observation satellites from companies like Planet Labs, Umbra, and HawkEye 360; GPS; miniature CubeSats for education and research; and military/defense satellites.

Loading next visibility...
Identifier
43922, 2019-002A
Orbit
LEO
Country
Flag of USUS
Related business
Manufacturer
NGIS SSG Gilbert
Mission
Operational Commercial Communications
Bus & Motor
ELITEBUS, Unknown motor
Mass
860 kg wet, 700 kg dry
Launch date (UTC)
2019-01-11 (7 years ago)
Launch vehicle
FALCON 9
Launch site
Air Force Western Test Range (AFWTR)
Object type
Payload
Rocket body
Debris
Shape & HBR
Trap Box + 2 Pan, 4.8 m
Radar Cross Section
10.154 m², Large (>1 m²)

Expand to show TLE details & history
Last TLE update: 8 hours ago

TLE from 8 hours ago
0 IRIDIUM 180
1 43922U 19002A   26125.43762619  .00000091  00000-0  25393-4 0  9992
2 43922  86.4006  11.4653 0002083  87.4279 272.7155 14.34218011382867
Epoch: 2026-05-05T10:30Z
TLE epoch observation values (Epoch: 2026-05-05T10:30:10.902Z)
Latitude
-0.00007°
Longitude
-9.39261°
Altitude
780.647 km
Speed
7.464 km/s
True Right ascension
00h 45m 51s
True Declination
0° 00' 00"
Sunlit
Object was in daylight at epoch
Visualization orbit readout
Latitude
Unknown
Longitude
Unknown
Altitude
Unknown
Speed
Unknown
Apparent Right ascension
Unknown
Apparent Declination
Unknown
Sunlit
N/A
Visualization observer readout
Local Sidereal Time
02:36:16
Azimuth
Unknown
Elevation
Unknown
Doppler factor
Unknown
Orbital elements
Apogee altitude
776.121 km
Perigee altitude
773.141 km
Semi-major axis
7,152.768 km
Eccentricity
0.00021
Inclination
86.4006°
RAAN
11.4653°
Arg. of periapsis
87.4279°
True anomaly
272.69166°
Mean anomaly
272.7155°
Eccentric anomaly
272.70358°
Mean motion
3.58783 °/min
Orbital period
100.34 mins
BSTAR
0.000025393
Loading maneuver chart data...
Computing Atmospheric mass density...
Loading historical data...
Loading historical data...
Loading historical data...
Loading historical data...
Loading historical data...
Loading historical data...
Loading historical data...

Documentation

Showing up to 5 results
|